owner,sensor,date,latitude,longitude,vertical_datum,sea_water_temperature,qcFlag 
TCOON,ioos:station:TCOON:057:1,2015-08-01T00:18:00Z,28.4460,-96.3961,0.0,31.9,2 
TCOON,ioos:station:TCOON:057:1,2015-08-01T10:30:00Z,28.4460,-96.3961,0.0,30.6,2 
TCOON,ioos:station:TCOON:057:1,2015-08-01T11:18:00Z,28.4460,-96.3961,0.0,30.7,2 
TCOON,ioos:station:TCOON:057:1,2015-08-01T12:42:00Z,28.4460,-96.3961,0.0,30.5,2 
TCOON,ioos:station:TCOON:057:1,2015-08-01T13:30:00Z,28.4460,-96.3961,0.0,29.5,2 
TCOON,ioos:station:TCOON:057:1,2015-08-01T23:12:00Z,28.4460,-96.3961,0.0,30.5,2 
TCOON,ioos:station:TCOON:057:1,2015-08-02T00:12:00Z,28.4460,-96.3961,0.0,30.8,2 
TCOON,ioos:station:TCOON:057:1,2015-08-02T01:12:00Z,28.4460,-96.3961,0.0,32.1,2 
TCOON,ioos:station:TCOON:057:1,2015-08-02T02:18:00Z,28.4460,-96.3961,0.0,31.4,2 
TCOON,ioos:station:TCOON:057:1,2015-08-02T03:18:00Z,28.4460,-96.3961,0.0,31.2,2 
TCOON,ioos:station:TCOON:057:1,2015-08-02T04:12:00Z,28.4460,-96.3961,0.0,31.1,2 
TCOON,ioos:station:TCOON:057:1,2015-08-02T05:24:00Z,28.4460,-96.3961,0.0,31.0,2 
TCOON,ioos:station:TCOON:057:1,2015-08-02T06:24:00Z,28.4460,-96.3961,0.0,30.7,2 
TCOON,ioos:station:TCOON:057:1,2015-08-02T08:24:00Z,28.4460,-96.3961,0.0,30.6,2 
TCOON,ioos:station:TCOON:057:1,2015-08-02T09:18:00Z,28.4460,-96.3961,0.0,30.4,2 
TCOON,ioos:station:TCOON:057:1,2015-08-02T10:48:00Z,28.4460,-96.3961,0.0,30.6,2 
TCOON,ioos:station:TCOON:057:1,2015-08-02T11:18:00Z,28.4460,-96.3961,0.0,30.6,2 
TCOON,ioos:station:TCOON:057:1,2015-08-04T12:18:00Z,28.4460,-96.3961,0.0,30.3,2 
TCOON,ioos:station:TCOON:057:1,2015-08-05T11:48:00Z,28.4460,-96.3961,0.0,30.1,2 
TCOON,ioos:station:TCOON:057:1,2015-08-08T14:30:00Z,28.4460,-96.3961,0.0,29.7,2 
TCOON,ioos:station:TCOON:057:1,2015-08-09T02:12:00Z,28.4460,-96.3961,0.0,31.5,2 
TCOON,ioos:station:TCOON:057:1,2015-08-09T03:54:00Z,28.4460,-96.3961,0.0,30.5,2 
TCOON,ioos:station:TCOON:057:1,2015-08-09T05:18:00Z,28.4460,-96.3961,0.0,30.5,2 
TCOON,ioos:station:TCOON:057:1,2015-08-09T07:48:00Z,28.4460,-96.3961,0.0,30.6,2 
TCOON,ioos:station:TCOON:057:1,2015-08-09T16:24:00Z,28.4460,-96.3961,0.0,30.4,2 
TCOON,ioos:station:TCOON:057:1,2015-08-09T23:36:00Z,28.4460,-96.3961,0.0,31.9,2 
TCOON,ioos:station:TCOON:057:1,2015-08-10T00:12:00Z,28.4460,-96.3961,0.0,31.9,2 
TCOON,ioos:station:TCOON:057:1,2015-08-10T01:12:00Z,28.4460,-96.3961,0.0,31.8,2 
TCOON,ioos:station:TCOON:057:1,2015-08-10T02:12:00Z,28.4460,-96.3961,0.0,31.9,2 
TCOON,ioos:station:TCOON:057:1,2015-08-10T03:12:00Z,28.4460,-96.3961,0.0,31.6,2 
TCOON,ioos:station:TCOON:057:1,2015-08-10T04:12:00Z,28.4460,-96.3961,0.0,31.5,2 
TCOON,ioos:station:TCOON:057:1,2015-08-10T05:12:00Z,28.4460,-96.3961,0.0,30.9,2 
TCOON,ioos:station:TCOON:057:1,2015-08-10T12:00:00Z,28.4460,-96.3961,0.0,29.2,2 
TCOON,ioos:station:TCOON:057:1,2015-08-10T12:18:00Z,28.4460,-96.3961,0.0,29.2,2 
TCOON,ioos:station:TCOON:057:1,2015-08-10T23:24:00Z,28.4460,-96.3961,0.0,32.1,2 
TCOON,ioos:station:TCOON:057:1,2015-08-11T00:18:00Z,28.4460,-96.3961,0.0,31.8,2 
TCOON,ioos:station:TCOON:057:1,2015-08-11T01:18:00Z,28.4460,-96.3961,0.0,31.2,2 
TCOON,ioos:station:TCOON:057:1,2015-08-11T02:18:00Z,28.4460,-96.3961,0.0,31.2,2 
TCOON,ioos:station:TCOON:057:1,2015-08-11T03:24:00Z,28.4460,-96.3961,0.0,31.2,2 
TCOON,ioos:station:TCOON:057:1,2015-08-11T04:12:00Z,28.4460,-96.3961,0.0,31.2,2 
TCOON,ioos:station:TCOON:057:1,2015-08-11T05:18:00Z,28.4460,-96.3961,0.0,30.9,2 
TCOON,ioos:station:TCOON:057:1,2015-08-11T07:12:00Z,28.4460,-96.3961,0.0,30.8,2 
TCOON,ioos:station:TCOON:057:1,2015-08-11T08:12:00Z,28.4460,-96.3961,0.0,30.4,2 
TCOON,ioos:station:TCOON:057:1,2015-08-11T09:12:00Z,28.4460,-96.3961,0.0,30.4,2 
TCOON,ioos:station:TCOON:057:1,2015-08-11T10:12:00Z,28.4460,-96.3961,0.0,30.5,2 
TCOON,ioos:station:TCOON:057:1,2015-08-11T11:12:00Z,28.4460,-96.3961,0.0,30.0,2 
TCOON,ioos:station:TCOON:057:1,2015-08-11T12:24:00Z,28.4460,-96.3961,0.0,29.1,2 
TCOON,ioos:station:TCOON:057:1,2015-08-11T13:18:00Z,28.4460,-96.3961,0.0,28.7,2 
TCOON,ioos:station:TCOON:057:1,2015-08-11T17:00:00Z,28.4460,-96.3961,0.0,31.0,2 
TCOON,ioos:station:TCOON:057:1,2015-08-11T17:18:00Z,28.4460,-96.3961,0.0,31.1,2 
TCOON,ioos:station:TCOON:057:1,2015-08-11T18:18:00Z,28.4460,-96.3961,0.0,31.8,2 
TCOON,ioos:station:TCOON:057:1,2015-08-11T19:18:00Z,28.4460,-96.3961,0.0,32.3,2 
TCOON,ioos:station:TCOON:057:1,2015-08-11T20:24:00Z,28.4460,-96.3961,0.0,32.6,2 
TCOON,ioos:station:TCOON:057:1,2015-08-11T23:18:00Z,28.4460,-96.3961,0.0,32.8,2 
TCOON,ioos:station:TCOON:057:1,2015-08-12T00:18:00Z,28.4460,-96.3961,0.0,31.8,2 
TCOON,ioos:station:TCOON:057:1,2015-08-12T01:12:00Z,28.4460,-96.3961,0.0,31.5,2 
TCOON,ioos:station:TCOON:057:1,2015-08-12T02:12:00Z,28.4460,-96.3961,0.0,31.3,2 
TCOON,ioos:station:TCOON:057:1,2015-08-12T05:30:00Z,28.4460,-96.3961,0.0,31.3,2 
TCOON,ioos:station:TCOON:057:1,2015-08-12T06:12:00Z,28.4460,-96.3961,0.0,31.2,2 
TCOON,ioos:station:TCOON:057:1,2015-08-12T08:00:00Z,28.4460,-96.3961,0.0,31.1,2 
TCOON,ioos:station:TCOON:057:1,2015-08-12T08:30:00Z,28.4460,-96.3961,0.0,31.0,2 
TCOON,ioos:station:TCOON:057:1,2015-08-12T16:48:00Z,28.4460,-96.3961,0.0,30.8,2 
TCOON,ioos:station:TCOON:057:1,2015-08-12T18:36:00Z,28.4460,-96.3961,0.0,32.1,2 
TCOON,ioos:station:TCOON:057:1,2015-08-12T19:12:00Z,28.4460,-96.3961,0.0,32.2,2 
TCOON,ioos:station:TCOON:057:1,2015-08-13T00:36:00Z,28.4460,-96.3961,0.0,31.0,2 
TCOON,ioos:station:TCOON:057:1,2015-08-13T01:18:00Z,28.4460,-96.3961,0.0,31.2,2 
TCOON,ioos:station:TCOON:057:1,2015-08-13T02:18:00Z,28.4460,-96.3961,0.0,30.9,2 
TCOON,ioos:station:TCOON:057:1,2015-08-13T03:24:00Z,28.4460,-96.3961,0.0,31.4,2 
TCOON,ioos:station:TCOON:057:1,2015-08-13T04:12:00Z,28.4460,-96.3961,0.0,31.3,2 
TCOON,ioos:station:TCOON:057:1,2015-08-13T05:18:00Z,28.4460,-96.3961,0.0,31.2,2 
TCOON,ioos:station:TCOON:057:1,2015-08-13T06:18:00Z,28.4460,-96.3961,0.0,30.6,2 
TCOON,ioos:station:TCOON:057:1,2015-08-13T22:24:00Z,28.4460,-96.3961,0.0,32.2,2 
TCOON,ioos:station:TCOON:057:1,2015-08-13T23:12:00Z,28.4460,-96.3961,0.0,32.1,2 
TCOON,ioos:station:TCOON:057:1,2015-08-14T00:12:00Z,28.4460,-96.3961,0.0,31.3,2 
TCOON,ioos:station:TCOON:057:1,2015-08-14T01:24:00Z,28.4460,-96.3961,0.0,30.9,2 
TCOON,ioos:station:TCOON:057:1,2015-08-14T02:18:00Z,28.4460,-96.3961,0.0,30.9,2 
TCOON,ioos:station:TCOON:057:1,2015-08-14T04:48:00Z,28.4460,-96.3961,0.0,30.7,2 
TCOON,ioos:station:TCOON:057:1,2015-08-14T21:48:00Z,28.4460,-96.3961,0.0,32.0,2 
TCOON,ioos:station:TCOON:057:1,2015-08-16T09:18:00Z,28.4460,-96.3961,0.0,30.6,2 
TCOON,ioos:station:TCOON:057:1,2015-08-17T08:36:00Z,28.4460,-96.3961,0.0,30.5,2 
TCOON,ioos:station:TCOON:057:1,2015-08-20T14:24:00Z,28.4460,-96.3961,0.0,30.3,2 
TCOON,ioos:station:TCOON:057:1,2015-08-20T15:12:00Z,28.4460,-96.3961,0.0,30.2,2 
TCOON,ioos:station:TCOON:057:1,2015-08-20T16:12:00Z,28.4460,-96.3961,0.0,29.9,2 
TCOON,ioos:station:TCOON:057:1,2015-08-20T17:12:00Z,28.4460,-96.3961,0.0,29.6,2 
TCOON,ioos:station:TCOON:057:1,2015-08-20T18:18:00Z,28.4460,-96.3961,0.0,29.4,2 
TCOON,ioos:station:TCOON:057:1,2015-08-20T19:18:00Z,28.4460,-96.3961,0.0,28.9,2 
TCOON,ioos:station:TCOON:057:1,2015-08-20T20:18:00Z,28.4460,-96.3961,0.0,28.6,2 
TCOON,ioos:station:TCOON:057:1,2015-08-20T21:12:00Z,28.4460,-96.3961,0.0,28.0,2 
TCOON,ioos:station:TCOON:057:1,2015-08-20T22:30:00Z,28.4460,-96.3961,0.0,28.6,2 
TCOON,ioos:station:TCOON:057:1,2015-08-21T00:30:00Z,28.4460,-96.3961,0.0,28.8,2 
TCOON,ioos:station:TCOON:057:1,2015-08-21T01:12:00Z,28.4460,-96.3961,0.0,28.9,2 
TCOON,ioos:station:TCOON:057:1,2015-08-21T02:12:00Z,28.4460,-96.3961,0.0,28.7,2 
TCOON,ioos:station:TCOON:057:1,2015-08-21T03:18:00Z,28.4460,-96.3961,0.0,28.3,2 
TCOON,ioos:station:TCOON:057:1,2015-08-21T10:48:00Z,28.4460,-96.3961,0.0,29.3,2 
TCOON,ioos:station:TCOON:057:1,2015-08-21T11:24:00Z,28.4460,-96.3961,0.0,29.3,2 
TCOON,ioos:station:TCOON:057:1,2015-08-21T12:18:00Z,28.4460,-96.3961,0.0,29.4,2 
TCOON,ioos:station:TCOON:057:1,2015-08-21T13:12:00Z,28.4460,-96.3961,0.0,29.3,2 
TCOON,ioos:station:TCOON:057:1,2015-08-21T14:18:00Z,28.4460,-96.3961,0.0,29.2,2 
TCOON,ioos:station:TCOON:057:1,2015-08-21T15:24:00Z,28.4460,-96.3961,0.0,29.1,2 
TCOON,ioos:station:TCOON:057:1,2015-08-21T16:18:00Z,28.4460,-96.3961,0.0,28.9,2 
TCOON,ioos:station:TCOON:057:1,2015-08-25T01:54:00Z,28.4460,-96.3961,0.0,31.6,2 
TCOON,ioos:station:TCOON:057:1,2015-08-25T02:12:00Z,28.4460,-96.3961,0.0,31.5,2 
TCOON,ioos:station:TCOON:057:1,2015-08-25T03:12:00Z,28.4460,-96.3961,0.0,31.2,2 
TCOON,ioos:station:TCOON:057:1,2015-08-25T04:18:00Z,28.4460,-96.3961,0.0,31.0,2 
TCOON,ioos:station:TCOON:057:1,2015-08-25T05:12:00Z,28.4460,-96.3961,0.0,30.9,2 
TCOON,ioos:station:TCOON:057:1,2015-08-25T06:24:00Z,28.4460,-96.3961,0.0,30.9,2 
TCOON,ioos:station:TCOON:057:1,2015-08-25T09:36:00Z,28.4460,-96.3961,0.0,31.3,2 
TCOON,ioos:station:TCOON:057:1,2015-08-25T21:48:00Z,28.4460,-96.3961,0.0,33.0,2 
TCOON,ioos:station:TCOON:057:1,2015-08-25T22:18:00Z,28.4460,-96.3961,0.0,33.1,2 
TCOON,ioos:station:TCOON:057:1,2015-08-25T23:18:00Z,28.4460,-96.3961,0.0,32.9,2 
TCOON,ioos:station:TCOON:057:1,2015-08-26T00:18:00Z,28.4460,-96.3961,0.0,32.2,2 
TCOON,ioos:station:TCOON:057:1,2015-08-26T01:24:00Z,28.4460,-96.3961,0.0,32.0,2 
TCOON,ioos:station:TCOON:057:1,2015-08-26T04:42:00Z,28.4460,-96.3961,0.0,31.2,2 
TCOON,ioos:station:TCOON:057:1,2015-08-26T05:24:00Z,28.4460,-96.3961,0.0,31.3,2 
TCOON,ioos:station:TCOON:057:1,2015-08-26T06:12:00Z,28.4460,-96.3961,0.0,31.2,2 
TCOON,ioos:station:TCOON:057:1,2015-08-26T07:48:00Z,28.4460,-96.3961,0.0,31.0,2 
TCOON,ioos:station:TCOON:057:1,2015-08-26T12:42:00Z,28.4460,-96.3961,0.0,30.7,2 
TCOON,ioos:station:TCOON:057:1,2015-08-26T13:12:00Z,28.4460,-96.3961,0.0,30.5,2 
TCOON,ioos:station:TCOON:057:1,2015-08-27T00:30:00Z,28.4460,-96.3961,0.0,31.5,2 
TCOON,ioos:station:TCOON:057:1,2015-08-27T01:18:00Z,28.4460,-96.3961,0.0,31.3,2 
TCOON,ioos:station:TCOON:057:1,2015-08-27T02:18:00Z,28.4460,-96.3961,0.0,31.1,2 
TCOON,ioos:station:TCOON:057:1,2015-08-27T03:18:00Z,28.4460,-96.3961,0.0,31.1,2 
TCOON,ioos:station:TCOON:057:1,2015-08-27T04:18:00Z,28.4460,-96.3961,0.0,30.9,2 
TCOON,ioos:station:TCOON:057:1,2015-08-27T06:42:00Z,28.4460,-96.3961,0.0,30.5,2 
TCOON,ioos:station:TCOON:057:1,2015-08-27T07:54:00Z,28.4460,-96.3961,0.0,30.4,2 
TCOON,ioos:station:TCOON:057:1,2015-08-27T09:18:00Z,28.4460,-96.3961,0.0,30.5,2 
TCOON,ioos:station:TCOON:057:1,2015-08-27T10:12:00Z,28.4460,-96.3961,0.0,30.2,2 
TCOON,ioos:station:TCOON:057:1,2015-08-27T11:18:00Z,28.4460,-96.3961,0.0,30.1,2 
TCOON,ioos:station:TCOON:057:1,2015-08-27T12:24:00Z,28.4460,-96.3961,0.0,30.2,2 
TCOON,ioos:station:TCOON:057:1,2015-08-27T13:18:00Z,28.4460,-96.3961,0.0,30.2,2 
TCOON,ioos:station:TCOON:057:1,2015-08-27T14:12:00Z,28.4460,-96.3961,0.0,30.2,2 
TCOON,ioos:station:TCOON:057:1,2015-08-27T15:24:00Z,28.4460,-96.3961,0.0,30.0,2 
TCOON,ioos:station:TCOON:057:1,2015-08-27T16:18:00Z,28.4460,-96.3961,0.0,30.4,2 
TCOON,ioos:station:TCOON:057:1,2015-08-27T17:30:00Z,28.4460,-96.3961,0.0,30.5,2 
TCOON,ioos:station:TCOON:057:1,2015-08-27T22:36:00Z,28.4460,-96.3961,0.0,32.0,2 
TCOON,ioos:station:TCOON:057:1,2015-08-27T23:30:00Z,28.4460,-96.3961,0.0,31.8,2 
TCOON,ioos:station:TCOON:057:1,2015-08-28T00:12:00Z,28.4460,-96.3961,0.0,31.6,2 
TCOON,ioos:station:TCOON:057:1,2015-08-28T01:12:00Z,28.4460,-96.3961,0.0,31.2,2 
TCOON,ioos:station:TCOON:057:1,2015-08-28T02:12:00Z,28.4460,-96.3961,0.0,31.1,2 
TCOON,ioos:station:TCOON:057:1,2015-08-28T03:12:00Z,28.4460,-96.3961,0.0,30.9,2 
TCOON,ioos:station:TCOON:057:1,2015-08-28T04:18:00Z,28.4460,-96.3961,0.0,30.8,2 
TCOON,ioos:station:TCOON:057:1,2015-08-28T05:24:00Z,28.4460,-96.3961,0.0,30.8,2 
TCOON,ioos:station:TCOON:057:1,2015-08-28T06:24:00Z,28.4460,-96.3961,0.0,30.7,2 
TCOON,ioos:station:TCOON:057:1,2015-08-28T07:54:00Z,28.4460,-96.3961,0.0,30.5,2 
TCOON,ioos:station:TCOON:057:1,2015-08-28T09:18:00Z,28.4460,-96.3961,0.0,30.4,2 
TCOON,ioos:station:TCOON:057:1,2015-08-28T10:24:00Z,28.4460,-96.3961,0.0,30.5,2 
TCOON,ioos:station:TCOON:057:1,2015-08-28T11:18:00Z,28.4460,-96.3961,0.0,30.4,2 
TCOON,ioos:station:TCOON:057:1,2015-08-28T12:24:00Z,28.4460,-96.3961,0.0,30.0,2 
TCOON,ioos:station:TCOON:057:1,2015-08-28T13:18:00Z,28.4460,-96.3961,0.0,30.3,2 
TCOON,ioos:station:TCOON:057:1,2015-08-28T14:30:00Z,28.4460,-96.3961,0.0,30.3,2 
TCOON,ioos:station:TCOON:057:1,2015-08-28T15:18:00Z,28.4460,-96.3961,0.0,30.4,2 
TCOON,ioos:station:TCOON:057:1,2015-08-28T16:36:00Z,28.4460,-96.3961,0.0,30.6,2 
TCOON,ioos:station:TCOON:057:1,2015-08-28T18:18:00Z,28.4460,-96.3961,0.0,31.0,2 
TCOON,ioos:station:TCOON:057:1,2015-08-29T06:12:00Z,28.4460,-96.3961,0.0,30.6,2 
TCOON,ioos:station:TCOON:057:1,2015-08-29T09:00:00Z,28.4460,-96.3961,0.0,30.2,2 
TCOON,ioos:station:TCOON:057:1,2015-08-29T10:54:00Z,28.4460,-96.3961,0.0,30.1,2 
TCOON,ioos:station:TCOON:057:1,2015-08-29T11:30:00Z,28.4460,-96.3961,0.0,29.9,2 
TCOON,ioos:station:TCOON:057:1,2015-08-29T12:18:00Z,28.4460,-96.3961,0.0,29.7,2 
TCOON,ioos:station:TCOON:057:1,2015-08-29T13:30:00Z,28.4460,-96.3961,0.0,29.7,2 
TCOON,ioos:station:TCOON:057:1,2015-08-29T14:18:00Z,28.4460,-96.3961,0.0,29.9,2 
TCOON,ioos:station:TCOON:057:1,2015-08-29T15:24:00Z,28.4460,-96.3961,0.0,30.1,2 
TCOON,ioos:station:TCOON:057:1,2015-08-29T16:24:00Z,28.4460,-96.3961,0.0,30.3,2 
TCOON,ioos:station:TCOON:057:1,2015-08-29T18:24:00Z,28.4460,-96.3961,0.0,30.7,2 
TCOON,ioos:station:TCOON:057:1,2015-08-29T19:24:00Z,28.4460,-96.3961,0.0,31.1,2 
TCOON,ioos:station:TCOON:057:1,2015-08-29T20:30:00Z,28.4460,-96.3961,0.0,31.3,2 
TCOON,ioos:station:TCOON:057:1,2015-08-29T21:30:00Z,28.4460,-96.3961,0.0,31.3,2 
TCOON,ioos:station:TCOON:057:1,2015-08-29T23:12:00Z,28.4460,-96.3961,0.0,31.9,2 
TCOON,ioos:station:TCOON:057:1,2015-08-30T00:48:00Z,28.4460,-96.3961,0.0,31.5,2 
TCOON,ioos:station:TCOON:057:1,2015-08-30T01:30:00Z,28.4460,-96.3961,0.0,31.1,2 
TCOON,ioos:station:TCOON:057:1,2015-08-30T02:18:00Z,28.4460,-96.3961,0.0,31.2,2 
TCOON,ioos:station:TCOON:057:1,2015-08-30T03:24:00Z,28.4460,-96.3961,0.0,30.8,2 
TCOON,ioos:station:TCOON:057:1,2015-08-30T04:18:00Z,28.4460,-96.3961,0.0,30.6,2 
TCOON,ioos:station:TCOON:057:1,2015-08-30T05:24:00Z,28.4460,-96.3961,0.0,30.4,2 
TCOON,ioos:station:TCOON:057:1,2015-08-30T06:18:00Z,28.4460,-96.3961,0.0,30.5,2 
TCOON,ioos:station:TCOON:057:1,2015-08-30T07:48:00Z,28.4460,-96.3961,0.0,30.2,2 
TCOON,ioos:station:TCOON:057:1,2015-08-30T08:18:00Z,28.4460,-96.3961,0.0,30.1,2 
TCOON,ioos:station:TCOON:057:1,2015-08-30T09:12:00Z,28.4460,-96.3961,0.0,30.1,2 
TCOON,ioos:station:TCOON:057:1,2015-08-30T10:12:00Z,28.4460,-96.3961,0.0,29.9,2 
TCOON,ioos:station:TCOON:057:1,2015-08-30T11:12:00Z,28.4460,-96.3961,0.0,30.0,2 
TCOON,ioos:station:TCOON:057:1,2015-08-30T12:18:00Z,28.4460,-96.3961,0.0,30.2,2 
TCOON,ioos:station:TCOON:057:1,2015-08-30T13:12:00Z,28.4460,-96.3961,0.0,30.2,2 
TCOON,ioos:station:TCOON:057:1,2015-08-30T14:18:00Z,28.4460,-96.3961,0.0,29.7,2 
TCOON,ioos:station:TCOON:057:1,2015-08-30T15:18:00Z,28.4460,-96.3961,0.0,30.1,2 
TCOON,ioos:station:TCOON:057:1,2015-08-30T16:18:00Z,28.4460,-96.3961,0.0,30.3,2 
TCOON,ioos:station:TCOON:057:1,2015-08-30T17:24:00Z,28.4460,-96.3961,0.0,30.4,2 
TCOON,ioos:station:TCOON:057:1,2015-08-30T18:12:00Z,28.4460,-96.3961,0.0,30.9,2 
TCOON,ioos:station:TCOON:057:1,2015-08-30T19:24:00Z,28.4460,-96.3961,0.0,31.2,2 
TCOON,ioos:station:TCOON:057:1,2015-08-30T20:12:00Z,28.4460,-96.3961,0.0,30.8,2 
TCOON,ioos:station:TCOON:057:1,2015-08-30T21:18:00Z,28.4460,-96.3961,0.0,31.0,2 
TCOON,ioos:station:TCOON:057:1,2015-08-30T22:12:00Z,28.4460,-96.3961,0.0,31.1,2 
TCOON,ioos:station:TCOON:057:1,2015-08-31T00:00:00Z,28.4460,-96.3961,0.0,30.8,2 
TCOON,ioos:station:TCOON:057:1,2015-08-31T01:18:00Z,28.4460,-96.3961,0.0,30.6,2 
TCOON,ioos:station:TCOON:057:1,2015-08-31T02:24:00Z,28.4460,-96.3961,0.0,30.3,2 
TCOON,ioos:station:TCOON:057:1,2015-08-31T03:18:00Z,28.4460,-96.3961,0.0,30.2,2 
TCOON,ioos:station:TCOON:057:1,2015-08-31T04:18:00Z,28.4460,-96.3961,0.0,30.1,2 
TCOON,ioos:station:TCOON:057:1,2015-08-31T05:18:00Z,28.4460,-96.3961,0.0,30.1,2 
TCOON,ioos:station:TCOON:057:1,2015-08-31T06:18:00Z,28.4460,-96.3961,0.0,30.0,2 
TCOON,ioos:station:TCOON:057:1,2015-08-31T08:06:00Z,28.4460,-96.3961,0.0,30.0,2 
TCOON,ioos:station:TCOON:057:1,2015-08-31T09:18:00Z,28.4460,-96.3961,0.0,29.8,2 
TCOON,ioos:station:TCOON:057:1,2015-08-31T10:24:00Z,28.4460,-96.3961,0.0,29.7,2 
TCOON,ioos:station:TCOON:057:1,2015-08-31T11:24:00Z,28.4460,-96.3961,0.0,29.7,2 
TCOON,ioos:station:TCOON:057:1,2015-08-31T12:18:00Z,28.4460,-96.3961,0.0,29.7,2 
TCOON,ioos:station:TCOON:057:1,2015-08-31T13:12:00Z,28.4460,-96.3961,0.0,29.6,2 
TCOON,ioos:station:TCOON:057:1,2015-08-31T14:12:00Z,28.4460,-96.3961,0.0,29.5,2 
TCOON,ioos:station:TCOON:057:1,2015-08-31T15:12:00Z,28.4460,-96.3961,0.0,29.3,2 
TCOON,ioos:station:TCOON:057:1,2015-08-31T16:18:00Z,28.4460,-96.3961,0.0,29.2,2 
TCOON,ioos:station:TCOON:057:1,2015-08-31T17:18:00Z,28.4460,-96.3961,0.0,29.5,2 
TCOON,ioos:station:TCOON:057:1,2015-08-31T18:18:00Z,28.4460,-96.3961,0.0,30.0,2 
TCOON,ioos:station:TCOON:057:1,2015-08-31T19:12:00Z,28.4460,-96.3961,0.0,30.3,2 
TCOON,ioos:station:TCOON:057:1,2015-08-31T20:18:00Z,28.4460,-96.3961,0.0,30.4,2 
TCOON,ioos:station:TCOON:057:1,2015-08-31T21:18:00Z,28.4460,-96.3961,0.0,30.1,2 
TCOON,ioos:station:TCOON:057:1,2015-08-31T22:24:00Z,28.4460,-96.3961,0.0,30.2,2 
TCOON,ioos:station:TCOON:057:1,2015-08-31T23:18:00Z,28.4460,-96.3961,0.0,30.2,2 
 
DISCLAIMER: The Gulf of Mexico Coastal and Ocean Observing (GCOOS) Data Portal aggregates data from the regional data providers for the convenience of all data users. Data published on this website should not be used for navigation or certain other uses as we cannot guarantee data accuracy or availability. The data and delivery services are provided 'as is' without warranty of any kind. Data Source: Gulf of Mexico Coastal Ocean Observing System Data Portal (http://data.gcoos.org/) 
